Location: Ariel
(45.9570°N, 122.5700°W)
Time: 13:08:49
(UTC-07:00)

Tiros 1 - Pass Details

Date: 21 July 2019
Orbit: 631 x 664 km, 48.4° (Epoch: 25 August)

Event Time Altitude Azimuth Distance (km) Brightness Sun altitude
Rises 13:42:19 0° 237° (WSW) 2,981 10.8 63.9°
Reaches altitude 10° 13:44:40 10° 234° (SW) 2,074 10.2 63.8°
Maximum altitude 13:49:25 64° 154° (SSE) 735 9.2 63.6°
Drops below altitude 10° 13:54:11 10° 73° (ENE) 2,084 9.7 63.3°
Sets 13:56:33 0° 71° (ENE) 2,997 10.4 63.2°
